Location: Rounton
(54.4000°N, 1.3500°W)
Time: 19:09:22
(UTC+00:00)

Altair - Pass Details

Date: 07 December 2021
Orbit: 1501 x 1683 km, 47.2° (Epoch: 16 January)

Event Time Altitude Azimuth Distance (km) Brightness Sun altitude
Rises 22:18:46 0° 282° (WNW) 4,661 10.4 -53.3°
Enters shadow 22:23:38 - 260° (W) 3,711 9.6 -53.8°
Reaches altitude 10° 22:24:02 10° 257° (WSW) 3,658 - -53.8°
Maximum altitude 22:27:41 13° 233° (SW) 3,413 - -54.1°
Drops below altitude 10° 22:31:20 10° 209° (SSW) 3,647 - -54.5°
Sets 22:36:37 0° 184° (S) 4,635 - -54.9°
